Flag for Martinique Weather past 2 weeks in Fort-de-France, Martinique

Now
73 °F

Passing clouds.


Feels Like: 68 °F
Forecast: 75 / 84 °F
Wind: 5 mph from Northeast

Location: Le Lamentin Airport

Current Time: Apr 2, 2015 at 2:57:23 AM

Latest Report: Apr 2, 2015 at 2:30 AM


Visibility: N/A

Pressure: 29.98 "Hg

Humidity: 100%

Dew point: 73 °F

Location of Fort-de-FranceLocation

Historic Weather in Fort-de-France — Graph

°F

Fort-de-France temperature yesterday

Maximum temperature yesterday: 84 °F (at 9:00 AM)
Minimum temperature yesterday: 72 °F (at 5:00 AM)
Average temperature yesterday: 78 °F

Past Weeks' High & Low Weather Summary

 TemperatureHumidityPressure
High86 °F (Mar 19, 12:00 PM)100% (Mar 18, 3:00 AM)30.12 "Hg (Mar 18, 3:00 AM)
Low68 °F (Mar 31, 6:30 AM)46% (Mar 31, 2:30 PM)29.89 "Hg (Mar 18, 3:30 PM)
Average78 °F76%30.01 "Hg
* Reported Mar 18 2:00 AM — Apr 2 2:00 AM, Fort-de-France, Weather by CustomWeather, © 2015

Note: Actual official high and low records may vary slightly from our data, if they occured in-between our weather recording intervals... More about our weather records

Advertising

Fort-de-France weather history for previous 24 hours

 ConditionsComfort  
Time TempWeatherWind HumidityBarometerVisibility
2:00 AM
Thu, Apr 2
75 °FPassing clouds.5 mph94%29.98 "HgN/A
1:30 AM75 °FOvercast.3 mph89%30.01 "HgN/A
1:00 AM75 °FLight rain. Partly cloudy.5 mph89%30.01 "HgN/A
12:30 AM75 °FPassing clouds.2 mph89%30.01 "HgN/A
12:00 AM75 °FPassing clouds.3 mph89%30.04 "HgN/A
11:30 PM
Wed, Apr 1
75 °FPassing clouds.6 mph89%30.04 "HgN/A
11:00 PM75 °FPartly cloudy.8 mph89%30.04 "HgN/A
10:30 PM75 °FClear.10 mph83%30.04 "HgN/A
10:00 PM77 °FClear.8 mph79%30.04 "HgN/A
9:30 PM75 °FClear.7 mph78%30.04 "HgN/A
9:00 PM75 °FOvercast.7 mph83%30.04 "HgN/A
8:30 PM77 °FPassing clouds.10 mph83%30.01 "HgN/A
8:00 PM75 °FClear.7 mph89%30.01 "HgN/A
7:30 PM75 °FClear.7 mph89%30.01 "HgN/A
7:00 PM75 °FClear.5 mph83%29.98 "HgN/A
6:30 PM75 °FClear.7 mph83%29.98 "HgN/A
6:00 PM77 °FScattered clouds.12 mph83%29.98 "HgN/A
5:30 PM81 °FPartly sunny.14 mph70%29.98 "HgN/A
5:00 PM81 °FClear.12 mph66%29.98 "HgN/A
4:30 PM79 °FPartly sunny.10 mph70%29.98 "HgN/A
4:00 PM79 °FMore clouds than sun.16 mph74%29.98 "HgN/A
3:30 PM77 °FBroken clouds.9 mph83%29.98 "HgN/A
3:00 PM81 °FLight rain. Partly sunny.9 mph70%30.01 "HgN/A
2:30 PM81 °FPartly sunny.15 mph66%30.01 "HgN/A
2:00 PM82 °FScattered clouds.20 mph62%30.01 "HgN/A
1:30 PM84 °FPassing clouds.17 mph58%30.01 "HgN/A
1:00 PM84 °FBroken clouds.18 mph62%30.01 "HgN/A
12:30 PM82 °FOvercast.18 mph62%30.04 "HgN/A
12:00 PM84 °FOvercast.20 mph58%30.04 "HgN/A
11:30 AM84 °FBroken clouds.20 mph62%30.04 "HgN/A
11:00 AM84 °FBroken clouds.18 mph66%30.07 "HgN/A
10:30 AM82 °FBroken clouds.18 mph70%30.07 "HgN/A
10:00 AM82 °FBroken clouds.18 mph66%30.07 "HgN/A
9:30 AM84 °FBroken clouds.17 mph66%30.07 "HgN/A
9:00 AM84 °FPartly sunny.15 mph62%30.07 "HgN/A
8:30 AM82 °FBroken clouds.13 mph66%30.07 "HgN/A
8:00 AM82 °FPassing clouds.9 mph66%30.07 "HgN/A
7:30 AM81 °FPartly sunny.3 mph74%30.04 "HgN/A
7:00 AM77 °FBroken clouds.1 mph83%30.04 "HgN/A
6:30 AM75 °FPartly sunny.3 mph89%30.01 "HgN/A
6:00 AM73 °FClear.3 mph94%30.01 "HgN/A
5:30 AM73 °FPartly cloudy.No wind94%30.01 "HgN/A
5:00 AM72 °FMild.No wind94%29.98 "HgN/A
4:30 AM73 °FClear.3 mph89%29.98 "HgN/A
4:00 AM73 °FOvercast.1 mph94%29.98 "HgN/A
3:30 AM73 °FPartly cloudy.No wind94%29.98 "HgN/A
3:00 AM73 °FPartly cloudy.3 mph94%29.98 "HgN/A
2:30 AM73 °FOvercast.1 mph94%29.98 "HgN/A
2:00 AM73 °FPartly cloudy.2 mph89%29.98 "HgN/A
Weather by CustomWeather, © 2015

See weather overviewHow to use our weather pages